• In Russia
  • List of Countries
  • For 7 days
  • Water Temperature
  • Weather Map
  • Weather Widgets
  • user-avatar
    Login

    Hourly Weather Kabul

    Today, 25 August, Sunday

    Time Temperature Precipitation Wind Pressure Humidity
    00:00 +24°C° 0.1 mm 1 mps 610 mmHg 33%
    01:00 +23°C° 0.1 mm 1 mps 610 mmHg 34%
    02:00 +22°C° 0.1 mm 1 mps 609 mmHg 35%
    03:00 +22°C° 0 mm 1 mps 609 mmHg 37%
    04:00 +19°C° 0 mm 0 mps 609 mmHg 38%
    05:00 +19°C° 0 mm 0 mps 609 mmHg 40%
    06:00 +20°C° 0 mm 0 mps 609 mmHg 37%
    07:00 +21°C° 0 mm 0 mps 610 mmHg 34%
    08:00 +22°C° 0 mm 0 mps 611 mmHg 31%
    09:00 +26°C° 0 mm 1 mps 611 mmHg 30%
    10:00 +27°C° 0 mm 1 mps 611 mmHg 29%
    11:00 +28°C° 0 mm 1 mps 612 mmHg 28%
    12:00 +29°C° 0 mm 1 mps 612 mmHg 25%
    13:00 +30°C° 0 mm 2 mps 612 mmHg 21%
    14:00 +32°C° 0 mm 2 mps 611 mmHg 18%
    15:00 +32°C° 0 mm 2 mps 611 mmHg 18%
    16:00 +33°C° 0 mm 3 mps 611 mmHg 19%
    17:00 +33°C° 0 mm 3 mps 611 mmHg 19%
    18:00 +30°C° 0 mm 3 mps 611 mmHg 23%
    19:00 +29°C° 0 mm 2 mps 611 mmHg 26%
    20:00 +28°C° 0 mm 2 mps 611 mmHg 30%
    21:00 +27°C° 0 mm 2 mps 611 mmHg 32%
    22:00 +26°C° 0 mm 1 mps 611 mmHg 34%
    23:00 +25°C° 0 mm 1 mps 611 mmHg 36%

    Tomorrow, 26 August, Monday

    Time Temperature Precipitation Wind Pressure Humidity
    00:00 +25°C° 0 mm 1 mps 610 mmHg 37%
    01:00 +24°C° 0 mm 1 mps 610 mmHg 39%
    02:00 +21°C° 0 mm 0 mps 610 mmHg 40%
    03:00 +21°C° 0.1 mm 0 mps 610 mmHg 42%
    04:00 +20°C° 0.1 mm 0 mps 609 mmHg 43%
    05:00 +19°C° 0.1 mm 0 mps 609 mmHg 45%
    06:00 +21°C° 0 mm 0 mps 610 mmHg 41%
    07:00 +22°C° 0 mm 0 mps 611 mmHg 38%
    08:00 +23°C° 0 mm 0 mps 611 mmHg 35%
    09:00 +26°C° 0 mm 1 mps 612 mmHg 32%
    10:00 +28°C° 0 mm 1 mps 612 mmHg 30%
    11:00 +29°C° 0 mm 1 mps 612 mmHg 27%
    12:00 +30°C° 0 mm 1 mps 612 mmHg 25%
    13:00 +31°C° 0 mm 2 mps 612 mmHg 22%
    14:00 +32°C° 0 mm 2 mps 612 mmHg 19%
    15:00 +32°C° 0 mm 2 mps 612 mmHg 18%
    16:00 +33°C° 0 mm 3 mps 612 mmHg 18%
    17:00 +33°C° 0 mm 3 mps 612 mmHg 17%
    18:00 +31°C° 0 mm 3 mps 612 mmHg 20%
    19:00 +29°C° 0 mm 2 mps 612 mmHg 23%
    20:00 +28°C° 0 mm 2 mps 611 mmHg 26%
    21:00 +27°C° 0 mm 2 mps 611 mmHg 27%
    22:00 +26°C° 0 mm 2 mps 611 mmHg 27%
    23:00 +25°C° 0 mm 2 mps 611 mmHg 28%

    Day after tomorrow, 27 August, Tuesday

    Time Temperature Precipitation Wind Pressure Humidity
    00:00 +24°C° 0 mm 1 mps 611 mmHg 29%
    01:00 +23°C° 0 mm 1 mps 610 mmHg 29%
    02:00 +22°C° 0 mm 1 mps 609 mmHg 29%
    03:00 +22°C° 0 mm 1 mps 609 mmHg 30%
    04:00 +21°C° 0 mm 1 mps 609 mmHg 30%
    05:00 +20°C° 0 mm 1 mps 609 mmHg 31%
    06:00 +22°C° 0 mm 1 mps 609 mmHg 28%
    07:00 +23°C° 0 mm 1 mps 610 mmHg 25%
    08:00 +24°C° 0 mm 1 mps 611 mmHg 22%
    09:00 +26°C° 0 mm 1 mps 611 mmHg 20%
    10:00 +27°C° 0 mm 1 mps 612 mmHg 18%
    11:00 +29°C° 0 mm 2 mps 612 mmHg 17%
    12:00 +30°C° 0 mm 2 mps 612 mmHg 15%
    13:00 +31°C° 0 mm 2 mps 612 mmHg 14%
    14:00 +32°C° 0 mm 2 mps 612 mmHg 13%
    15:00 +33°C° 0 mm 3 mps 612 mmHg 13%
    16:00 +33°C° 0 mm 3 mps 612 mmHg 12%
    17:00 +33°C° 0 mm 3 mps 611 mmHg 12%
    18:00 +31°C° 0 mm 3 mps 611 mmHg 14%
    19:00 +29°C° 0 mm 3 mps 611 mmHg 15%
    20:00 +27°C° 0 mm 2 mps 611 mmHg 17%
    21:00 +26°C° 0 mm 2 mps 611 mmHg 18%
    22:00 +25°C° 0 mm 2 mps 611 mmHg 19%
    23:00 +24°C° 0 mm 2 mps 611 mmHg 21%

    28 August, Wednesday

    Time Temperature Precipitation Wind Pressure Humidity
    00:00 +23°C° 0 mm 1 mps 610 mmHg 22%
    01:00 +23°C° 0 mm 1 mps 610 mmHg 23%
    02:00 +22°C° 0 mm 1 mps 609 mmHg 24%
    03:00 +21°C° 0 mm 1 mps 609 mmHg 25%
    04:00 +19°C° 0 mm 0 mps 609 mmHg 26%
    05:00 +18°C° 0 mm 0 mps 609 mmHg 27%
    06:00 +20°C° 0 mm 0 mps 610 mmHg 24%
    07:00 +21°C° 0 mm 0 mps 610 mmHg 21%
    08:00 +23°C° 0 mm 0 mps 611 mmHg 18%
    09:00 +26°C° 0 mm 1 mps 612 mmHg 17%
    10:00 +28°C° 0 mm 1 mps 612 mmHg 15%
    11:00 +29°C° 0 mm 1 mps 613 mmHg 13%
    12:00 +30°C° 0 mm 1 mps 613 mmHg 13%
    13:00 +31°C° 0 mm 2 mps 612 mmHg 12%
    14:00 +34°C° 0 mm 2 mps 612 mmHg 12%
    15:00 +34°C° 0 mm 2 mps 612 mmHg 12%
    16:00 +34°C° 0 mm 2 mps 612 mmHg 12%
    17:00 +34°C° 0 mm 2 mps 612 mmHg 12%
    18:00 +31°C° 0 mm 2 mps 612 mmHg 14%
    19:00 +30°C° 0 mm 2 mps 612 mmHg 17%
    20:00 +29°C° 0 mm 2 mps 612 mmHg 20%
    21:00 +28°C° 0 mm 2 mps 612 mmHg 20%
    22:00 +26°C° 0 mm 2 mps 612 mmHg 21%
    23:00 +25°C° 0 mm 1 mps 611 mmHg 21%

    29 August, Thursday

    Time Temperature Precipitation Wind Pressure Humidity
    00:00 +25°C° 0 mm 1 mps 611 mmHg 22%
    01:00 +24°C° 0 mm 1 mps 610 mmHg 22%
    02:00 +23°C° 0 mm 1 mps 610 mmHg 23%
    03:00 +22°C° 0 mm 1 mps 610 mmHg 24%
    04:00 +20°C° 0 mm 0 mps 610 mmHg 24%
    05:00 +19°C° 0 mm 0 mps 610 mmHg 25%
    06:00 +21°C° 0 mm 0 mps 610 mmHg 22%
    07:00 +22°C° 0 mm 0 mps 611 mmHg 19%
    08:00 +24°C° 0 mm 0 mps 612 mmHg 16%
    09:00 +27°C° 0 mm 1 mps 612 mmHg 15%
    10:00 +29°C° 0 mm 1 mps 613 mmHg 14%
    11:00 +31°C° 0 mm 1 mps 613 mmHg 13%
    12:00 +32°C° 0 mm 1 mps 613 mmHg 12%
    13:00 +34°C° 0 mm 2 mps 613 mmHg 11%
    14:00 +35°C° 0 mm 2 mps 613 mmHg 9%
    15:00 +35°C° 0 mm 3 mps 613 mmHg 9%
    16:00 +35°C° 0 mm 4 mps 612 mmHg 9%
    17:00 +35°C° 0 mm 4 mps 612 mmHg 9%
    18:00 +33°C° 0 mm 4 mps 612 mmHg 11%
    19:00 +30°C° 0 mm 3 mps 612 mmHg 13%
    20:00 +28°C° 0 mm 3 mps 611 mmHg 15%
    21:00 +27°C° 0 mm 2 mps 611 mmHg 16%
    22:00 +25°C° 0 mm 2 mps 611 mmHg 18%
    23:00 +24°C° 0 mm 1 mps 610 mmHg 20%

    30 August, Friday

    Time Temperature Precipitation Wind Pressure Humidity
    00:00 +23°C° 0 mm 1 mps 610 mmHg 21%
    01:00 +23°C° 0 mm 1 mps 610 mmHg 21%
    02:00 +22°C° 0 mm 1 mps 609 mmHg 22%
    03:00 +21°C° 0 mm 1 mps 609 mmHg 23%
    04:00 +21°C° 0 mm 1 mps 609 mmHg 23%
    05:00 +20°C° 0 mm 1 mps 609 mmHg 24%
    06:00 +22°C° 0 mm 1 mps 609 mmHg 22%
    07:00 +23°C° 0 mm 1 mps 610 mmHg 19%
    08:00 +25°C° 0 mm 1 mps 611 mmHg 17%
    09:00 +26°C° 0 mm 1 mps 611 mmHg 16%
    10:00 +28°C° 0 mm 1 mps 611 mmHg 14%
    11:00 +30°C° 0 mm 1 mps 612 mmHg 13%
    12:00 +31°C° 0 mm 2 mps 612 mmHg 12%
    13:00 +32°C° 0 mm 2 mps 612 mmHg 11%
    14:00 +35°C° 0 mm 3 mps 612 mmHg 10%
    15:00 +34°C° 0 mm 4 mps 612 mmHg 10%
    16:00 +34°C° 0 mm 5 mps 611 mmHg 11%
    17:00 +34°C° 0 mm 7 mps 611 mmHg 11%
    18:00 +32°C° 0 mm 5 mps 611 mmHg 14%
    19:00 +29°C° 0 mm 4 mps 610 mmHg 16%
    20:00 +27°C° 0 mm 3 mps 610 mmHg 18%
    21:00 +26°C° 0 mm 3 mps 610 mmHg 20%
    22:00 +25°C° 0 mm 2 mps 610 mmHg 22%
    23:00 +23°C° 0 mm 2 mps 610 mmHg 25%
    Show more